Plattsmouth, NE

8:20 PM CDT on March 23, 2017 (GMT -0500)
Plattsmouth Municipal

Weather History for KPMV - April, 2013

Change the Weather History Date:

Tuesday, April 30, 2013

  Actual Average (KOFF) Record (KOFF)
Temperature  
Mean Temperature 68 °F -  
Max Temperature 78 °F 66 °F 87 °F (2007)
Min Temperature 59 °F 46 °F 33 °F (2005)
Cooling Degree Days 3    
Growing Degree Days 18 (Base 50)    
Moisture  
Dew Point 50 °F    
Average Humidity 48    
Maximum Humidity 65    
Minimum Humidity 35    
Precipitation  
Precipitation 0.00 in - - ()
Sea Level Pressure  
Sea Level Pressure 29.67 in    
Wind  
Wind Speed 15 mph (WNW)    
Max Wind Speed 25 mph    
Max Gust Speed 38 mph    
Visibility 10 miles    
Events Rain , Thunderstorm    
Averages and records for this station are not official NWS values.
T = Trace of Precipitation, MM = Missing Value Source: NWS Daily Summary

Daily Weather History Graph

Daily Weather History Graph

Search for Another Location

Airport or City:

Trip Planner

Search our weather history database for the weather conditions in past years. The results will help you decide how hot, cold, wet, or windy it might be!

Date:

Astronomy

Apr. 30, 2013 Rise Set
Actual Time 6:22 AM CDT 8:19 PM CDT
Civil Twilight 5:53 AM CDT 8:49 PM CDT
Nautical Twilight 5:16 AM CDT 9:25 PM CDT
Astronomical Twilight 4:37 AM CDT 10:05 PM CDT
Moon 12:44 AM CDT (4/30) 10:52 AM CDT (4/30)
Length of Visible Light 14h 56m
Length of Day
13h 56m
Waning Gibbous, 70% of the Moon is Illuminated
Apr 30
Waning Gibbous
May 2
Last Quarter
May 9
New
May 17
First Quarter
May 24
Full

Hourly Weather History & Observations

Time (CDT) Temp. Dew Point Humidity Pressure Visibility Wind Dir Wind Speed Gust Speed Precip Events Conditions
12:15 AM 73.4 °F 54.7 °F 52% 29.54 in 10.0 mi South 15.0 mph - N/A   Scattered Clouds
12:35 AM 72.3 °F 56.1 °F 57% 29.54 in 10.0 mi South 12.7 mph - N/A   Clear
12:55 AM 72.1 °F 55.9 °F 57% 29.54 in 10.0 mi South 13.8 mph - N/A   Clear
1:15 AM 71.1 °F 56.8 °F 61% 29.54 in 10.0 mi South 13.8 mph - N/A   Clear
1:35 AM 70.2 °F 56.7 °F 62% 29.54 in 10.0 mi South 12.7 mph - N/A   Clear
1:55 AM 69.8 °F 56.3 °F 62% 29.54 in 10.0 mi South 15.0 mph 18.4 mph N/A   Clear
2:15 AM 69.8 °F 54.7 °F 59% 29.53 in 10.0 mi South 18.4 mph 21.9 mph N/A   Clear
2:35 AM 68.9 °F 53.6 °F 58% 29.52 in 10.0 mi South 17.3 mph 23.0 mph N/A   Clear
2:55 AM 68.2 °F 52.9 °F 58% 29.53 in 10.0 mi South 19.6 mph - N/A   Clear
3:15 AM 68.9 °F 52.2 °F 55% 29.53 in 10.0 mi South 20.7 mph 26.5 mph N/A   Clear
3:35 AM 69.1 °F 51.6 °F 54% 29.53 in 10.0 mi South 23.0 mph 27.6 mph N/A   Clear
3:55 AM 71.1 °F 50.0 °F 47% 29.54 in 10.0 mi South 20.7 mph 31.1 mph N/A   Clear
4:15 AM 71.4 °F 49.3 °F 45% 29.54 in 10.0 mi SSW 23.0 mph 31.1 mph N/A   Clear
4:35 AM 71.6 °F 48.6 °F 44% 29.54 in 10.0 mi SSW 25.3 mph 38.0 mph N/A   Clear
4:55 AM 71.4 °F 48.6 °F 44% 29.55 in 10.0 mi South 21.9 mph 35.7 mph N/A   Clear
5:15 AM 70.9 °F 48.7 °F 45% 29.56 in 10.0 mi South 21.9 mph 29.9 mph N/A   Clear
5:35 AM 70.2 °F 49.1 °F 47% 29.57 in 10.0 mi South 21.9 mph 26.5 mph N/A   Clear
5:55 AM 69.8 °F 49.3 °F 48% 29.58 in 10.0 mi South 23.0 mph 29.9 mph N/A   Clear
6:15 AM 69.1 °F 49.3 °F 49% 29.59 in 10.0 mi South 19.6 mph 25.3 mph N/A   Clear
6:35 AM 69.1 °F 48.6 °F 48% 29.59 in 10.0 mi South 21.9 mph 28.8 mph N/A   Clear
6:55 AM 68.7 °F 48.7 °F 49% 29.59 in 10.0 mi South 21.9 mph 27.6 mph N/A   Clear
7:15 AM 68.9 °F 48.4 °F 48% 29.61 in 10.0 mi South 24.2 mph 27.6 mph N/A   Clear
7:35 AM 69.6 °F 47.8 °F 46% 29.65 in 10.0 mi SW 13.8 mph 24.2 mph N/A   Clear
7:55 AM 69.8 °F 48.7 °F 47% 29.68 in 10.0 mi SW 9.2 mph 18.4 mph N/A   Clear
8:15 AM 70.0 °F 49.5 °F 48% 29.69 in 10.0 mi WSW 6.9 mph - N/A   Clear
8:35 AM 72.0 °F 51.3 °F 48% 29.67 in 10.0 mi SSW 15.0 mph 20.7 mph N/A   Clear
8:55 AM 72.5 °F 52.5 °F 49% 29.68 in 10.0 mi SW 15.0 mph 21.9 mph N/A   Clear
9:15 AM 72.9 °F 53.4 °F 50% 29.68 in 10.0 mi SSW 18.4 mph - N/A   Clear
9:35 AM 74.1 °F 54.7 °F 51% 29.68 in 10.0 mi SW 19.6 mph 28.8 mph N/A   Clear
9:55 AM 74.1 °F 54.7 °F 51% 29.68 in 10.0 mi SW 21.9 mph 28.8 mph N/A   Clear
10:15 AM 74.3 °F 54.5 °F 50% 29.68 in 10.0 mi SW 17.3 mph 26.5 mph N/A   Scattered Clouds
10:35 AM 75.0 °F 54.9 °F 49% 29.68 in 10.0 mi SW 18.4 mph 25.3 mph N/A   Mostly Cloudy
10:55 AM 73.6 °F 50.4 °F 44% 29.69 in 10.0 mi WNW 10.4 mph - N/A   Mostly Cloudy
11:15 AM 74.3 °F 50.2 °F 43% 29.69 in 10.0 mi West 9.2 mph - N/A   Mostly Cloudy
11:35 AM 73.4 °F 50.2 °F 44% 29.69 in 10.0 mi NW 5.8 mph - N/A   Mostly Cloudy
11:55 AM 72.9 °F 49.8 °F 44% 29.69 in 10.0 mi WNW 6.9 mph - N/A   Mostly Cloudy
12:15 PM 74.5 °F 50.4 °F 43% 29.70 in 10.0 mi Calm Calm - N/A   Mostly Cloudy
12:35 PM 75.9 °F 51.3 °F 42% 29.70 in 10.0 mi NW 6.9 mph - N/A   Mostly Cloudy
12:55 PM 77.0 °F 51.3 °F 40% 29.70 in 10.0 mi WNW 8.1 mph - N/A   Scattered Clouds
1:15 PM 75.2 °F 51.6 °F 44% 29.70 in 10.0 mi NNW 4.6 mph - N/A   Mostly Cloudy
1:35 PM 75.4 °F 51.3 °F 43% 29.69 in 10.0 mi NNW 4.6 mph - N/A   Overcast
1:55 PM 75.7 °F 50.9 °F 42% 29.70 in 10.0 mi NNW 9.2 mph - N/A   Mostly Cloudy
2:15 PM 75.7 °F 50.9 °F 42% 29.70 in 10.0 mi NNW 9.2 mph - N/A   Mostly Cloudy
2:35 PM 77.2 °F 50.5 °F 39% 29.69 in 10.0 mi North 8.1 mph - N/A   Scattered Clouds
2:55 PM 77.2 °F 50.5 °F 39% 29.70 in 10.0 mi NW 8.1 mph - N/A   Scattered Clouds
3:15 PM 76.8 °F 51.6 °F 41% 29.70 in 10.0 mi North 3.5 mph - N/A   Mostly Cloudy
3:35 PM 77.0 °F 50.0 °F 39% 29.70 in 10.0 mi NNW 11.5 mph - N/A   Mostly Cloudy
3:55 PM 77.5 °F 50.7 °F 39% 29.70 in 10.0 mi North 10.4 mph - N/A   Mostly Cloudy
4:15 PM 77.4 °F 50.5 °F 39% 29.70 in 10.0 mi North 10.4 mph 16.1 mph N/A   Scattered Clouds
4:35 PM 77.2 °F 49.6 °F 38% 29.70 in 10.0 mi North 11.5 mph 16.1 mph N/A   Clear
4:55 PM 77.2 °F 48.9 °F 37% 29.70 in 10.0 mi North 13.8 mph 17.3 mph N/A   Clear
5:15 PM 77.4 °F 48.0 °F 35% 29.71 in 10.0 mi North 12.7 mph 19.6 mph N/A   Clear
5:35 PM 76.5 °F 48.0 °F 37% 29.71 in 10.0 mi NNW 15.0 mph 20.7 mph N/A   Scattered Clouds
5:55 PM 74.7 °F 47.3 °F 38% 29.72 in 10.0 mi North 11.5 mph 17.3 mph N/A   Clear
6:15 PM 74.1 °F 46.4 °F 37% 29.73 in 10.0 mi North 13.8 mph 20.7 mph N/A   Clear
6:35 PM 73.4 °F 45.7 °F 37% 29.74 in 10.0 mi North 9.2 mph 17.3 mph N/A   Mostly Cloudy
7:15 PM 70.5 °F 44.8 °F 40% 29.76 in 10.0 mi North 12.7 mph 17.3 mph N/A   Overcast
7:35 PM 69.8 °F 44.2 °F 40% 29.77 in 10.0 mi North 9.2 mph 16.1 mph N/A Thunderstorm Overcast
8:15 PM 68.4 °F 43.0 °F 40% 29.77 in 10.0 mi North 12.7 mph 18.4 mph N/A   Mostly Cloudy
8:35 PM 67.3 °F 43.0 °F 41% 29.78 in 10.0 mi North 12.7 mph 20.7 mph N/A   Mostly Cloudy
8:55 PM 65.7 °F 45.5 °F 48% 29.79 in 10.0 mi North 16.1 mph 23.0 mph N/A Rain Light Rain
9:15 PM 61.9 °F 48.9 °F 62% 29.80 in 10.0 mi NE 17.3 mph 21.9 mph N/A   Mostly Cloudy
9:35 PM 61.3 °F 48.0 °F 62% 29.82 in 10.0 mi NNE 12.7 mph 18.4 mph N/A   Mostly Cloudy
9:55 PM 60.8 °F 48.7 °F 64% 29.83 in 10.0 mi NNE 10.4 mph - N/A   Mostly Cloudy
10:15 PM 61.5 °F 48.2 °F 62% 29.84 in 10.0 mi NNE 10.4 mph - N/A   Overcast
10:35 PM 61.2 °F 47.8 °F 62% 29.84 in 10.0 mi NE 12.7 mph 18.4 mph N/A   Overcast
10:55 PM 60.4 °F 48.2 °F 64% 29.84 in 10.0 mi NE 11.5 mph - N/A   Overcast
11:15 PM 60.1 °F 47.8 °F 64% 29.84 in 10.0 mi NE 12.7 mph - N/A   Overcast
11:35 PM 59.4 °F 47.5 °F 65% 29.85 in 10.0 mi NNE 11.5 mph - N/A   Overcast
11:55 PM 59.4 °F 47.1 °F 64% 29.87 in 10.0 mi NNE 11.5 mph 17.3 mph N/A   Overcast